Regional Weather Roundup
Issued by NWS Sterling, VA

Home | Current Version | Previous Version | Graphics & Text | Print | Product List | Glossary On
Versions: 1 2 3 4 5 6 7 8 9 10 11 12 13 14 15 16 17 18 19 20 21 22 23 24 25 26 27 28 29 30 31 32 33 34 35 36 37 38 39 40 41 42 43 44 45 46 47 48 49 50
000
ASUS41 KLWX 120811
RWRLWX

REGIONAL WEATHER ROUNDUP
NATIONAL WEATHER SERVICE BALTIMORE MD/WASHINGTON DC
300 AM EST TUE DEC 12 2017

Note: "FAIR" indicates few or no clouds below 12,000 feet
with no significant weather and/or obstructions to visibility.
 TC=TEMPERATURE CELSIUS

 * =Non NWS site. Station does not report precipitation (e.g. rain,
    snow, etc.), thunder, or fog.

DCZ001-MDZ009-015-VAZ040>042-051-053>054-120900-
WASHINGTON METRO

CITY           SKY/WX    TMP DP  RH WIND       PRES   REMARKS
WASHINGTON NAT CLOUDY    43  33  68 S14       29.74F
DULLES         CLOUDY    39  30  70 S13       29.71F
ANDREWS AFB    CLOUDY    39  31  72 S9        29.72F
FT BELVOIR     CLOUDY    40  30  68 S6        29.74F
QUANTICO       CLOUDY    44  34  67 SW9       29.75F
COLLEGE PARK*  CLOUDY    39  31  71 CALM      29.74F
LEESBURG*      MOCLDY    39  32  75 S7        29.71F
MANASSAS*      CLOUDY    39  30  70 S7        29.73F
GAITHERSBURG*  CLOUDY    39  30  70 S7        29.71F

$$

MDZ006>007-011-014-120900-
BALTIMORE METRO

CITY           SKY/WX    TMP DP  RH WIND       PRES   REMARKS
BWI AIRPORT    CLOUDY    41  32  70 S5        29.73F
MD SCIENCE CTR   N/A     45  32  60 MISG      29.74F
MARTIN STATE   CLOUDY    43  39  87 SE13G20   29.77F
ANNAPOLIS      PTCLDY    44  36  73 S13       29.74F
FORT MEADE*    MOCLDY    37  32  81 S5        29.76F

$$

MDZ012-015-019>023-120900-
MARYLAND EASTERN SHORE

CITY           SKY/WX    TMP DP  RH WIND       PRES   REMARKS
OCEAN CITY     CLOUDY    45  39  79 SW10      29.84F
SALISBURY      MOCLDY    39  35  86 S6        29.83F
BAY BRIDGE AP* PTCLDY    41  37  87 S10       29.76F
CAMBRIDGE*     CLEAR     43  37  81 S8        29.81F
EASTON*        PTCLDY    42  36  78 S10       29.82F

$$

MDZ017>025-120900-
SOUTHERN MARYLAND

CITY           SKY/WX    TMP DP  RH WIND       PRES   REMARKS
PATUXENT RIVER PTCLDY    43  34  70 S8        29.79F
ST INIGOES     MOCLDY    43  34  70 S12       29.79F
LEONARDTOWN*   MOCLDY    41  32  70 S6        29.80F

$$

MDZ003>005-120900-
NORTH CENTRAL MARYLAND

CITY           SKY/WX    TMP DP  RH WIND       PRES   REMARKS
FREDERICK*     CLOUDY    39  30  70 S5        29.74F
HAGERSTOWN APT MOCLDY    41  28  60 S10       29.66F
WESTMINSTER*   CLOUDY    39  34  81 SE9       29.69F

$$

MDZ501>502-120900-
WESTERN MARYLAND

CITY           SKY/WX    TMP DP  RH WIND       PRES   REMARKS
OAKLAND*       CLEAR     37  27  65 W16G25    29.54F WCI  28
CUMBERLAND*    PTCLDY    32  27  80 CALM      29.68F

$$

VAZ025>031-120900-
SHENANDOAH VALLEY

CITY           SKY/WX    TMP DP  RH WIND       PRES   REMARKS
WINCHESTER*    CLOUDY    37  28  70 S6        29.66F
FRONT ROYAL*   FAIR      37  30  75 CALM      29.66F
LURAY*         MOCLDY    43  30  61 SW8       29.66F
NEW MARKET*    CLOUDY    40  28  61 W7        29.66F
STAUNTON*      PTCLDY    34  28  80 CALM      29.69F
WAYNESBORO*    CLOUDY    43  29  58 SW7       29.67F

$$

WVZ021-048>050-054>055-120900-
EASTERN WEST VIRGINIA PANHANDLE

CITY           SKY/WX    TMP DP  RH WIND       PRES   REMARKS
MARTINSBURG    CLOUDY    38  28  67 CALM      29.65F
PETERSBURG*    CLOUDY    27  24  89 CALM      29.63F

$$

VAZ036>039-050-120900-
CENTRAL FOOTHILLS

CITY           SKY/WX    TMP DP  RH WIND       PRES   REMARKS
CHARLOTTESVILL MOCLDY    38  29  70 S7        29.71F
CULPEPER*      FAIR      40  29  63 S7        29.72F
ORANGE*        CLOUDY    34  30  86 CALM      29.73F
GORDONSVILLE*  CLOUDY    36  30  79 SW6       29.72F
WARRENTON*     CLOUDY    40  28  62 S5        29.72F

$$

VAZ055>057-120900-
NORTH AND CENTRAL PIEDMONT

CITY           SKY/WX    TMP DP  RH WIND       PRES   REMARKS
FREDERICKSBRG* MOCLDY    40  32  74 S9        29.74F
STAFFORD*      CLOUDY    37  30  76 S5        29.78F

$$

NCZ024-NYZ072-PAZ021-071-VAZ022-071-120900-
OTHER REGIONAL OBSERVATIONS

CITY           SKY/WX    TMP DP  RH WIND       PRES   REMARKS
NEW YORK CITY  CLOUDY    42  31  64 S6        29.85F
PHILADELPHIA   CLOUDY    37  30  75 E5        29.80F
PITTSBURGH     CLOUDY    43  26  51 SW13      29.54F
ROANOKE        MOCLDY    34  29  82 CALM      29.74F
RICHMOND       CLOUDY    38  31  76 S9        29.78F
RALEIGH        MOCLDY    41  32  70 SW8       29.81F

$$

ANZ530>537-120900-
MARINE OBSERVATIONS

STATION/POSITION TIME  TEMP    WIND        PRES
                       AIR SEA DIR/SP/G
                 (UTC) (F)     (DEG/KT/KT) (MB)
THOMAS PT LIGHT  0800   46 48  180/ 23/ 26   N/A
BALT KEY BRIDGE  0748   45     180/ 15/ 19 1007.0F
COVE POINT       0748   44     200/ 17/ 19 1009.2F
LEWISETTA        0736   42 44  210/  9/ 11 1009.3F
SOLOMONS ISLAND  0748   44 48  190/ 13/ 16 1008.5F
PINEY POINT      0736          200/ 11/ 13   N/A

$$




USA.gov is the U.S. government's official web portal to all federal, state and local government web resources and services.